Weather History for Paso Robles, CA

Change the Weather History Date:

Saturday, September 21, 2013

  Actual Average Record
Temperature  
Mean Temperature 65 °F 68 °F  
Max Temperature 74 °F 87 °F 106 °F (2003)
Min Temperature 56 °F 50 °F 38 °F (1968)
Degree Days  
Heating Degree Days 0 1  
Month to date heating degree days 0 9  
Since 1 July heating degree days 0 17  
Cooling Degree Days 0 4  
Month to date cooling degree days 183 125  
Year to date cooling degree days 1157 858  
Growing Degree Days 14 (Base 50)    
Moisture  
Dew Point 53 °F    
Average Humidity 67    
Maximum Humidity 87    
Minimum Humidity 46    
Precipitation  
Precipitation 0.00 in 0.01 in 0.19 in (1990)
Month to date precipitation 0.00 0.11  
Year to date precipitation 1.46 9.01  
Since 1 July precipitation T 0.22  
Sea Level Pressure  
Sea Level Pressure 29.88 in    
Wind  
Wind Speed 8 mph (SSW)    
Max Wind Speed 22 mph    
Max Gust Speed 28 mph    
Visibility 10 miles    
Events      
T = Trace of Precipitation, MM = Missing Value Source: NWS Daily Summary

Daily Weather History Graph

Daily Weather History Graph

Search for Another Location

Airport:

Trip Planner

Search our weather history database for the weather conditions in past years. The results will help you decide how hot, cold, wet, or windy it might be!

Date:

Astronomy

Sep. 21, 2013 Rise Set
Actual Time 6:49 AM PDT 7:00 PM PDT
Civil Twilight 6:24 AM PDT 7:25 PM PDT
Nautical Twilight 5:54 AM PDT 7:55 PM PDT
Astronomical Twilight 5:24 AM PDT 8:25 PM PDT
Moon 8:21 PM PDT (9/21) 9:07 AM PDT (9/21)
Length of Visible Light 13h 01m
Length of Day
12h 10m
Waning Gibbous, 94% of the Moon is Illuminated
Sep 21
Waning Gibbous
Sep 26
Last Quarter
Oct 4
New
Oct 11
First Quarter
Oct 18
Full

Hourly Weather History & Observations

Time (PDT) Temp. Dew Point Humidity Pressure Visibility Wind Dir Wind Speed Gust Speed Precip Events Conditions
12:53 AM 57.0 °F 53.1 °F 87% 29.88 in 10.0 mi SSW 8.1 mph - N/A   Clear
1:53 AM 57.0 °F 54.0 °F 89% 29.88 in 10.0 mi South 6.9 mph - N/A   Clear
2:45 AM 55.4 °F 53.6 °F 94% 29.90 in 10.0 mi SE 5.8 mph - N/A   Mostly Cloudy
2:53 AM 57.0 °F 54.0 °F 89% 29.88 in 10.0 mi SE 6.9 mph - N/A   Mostly Cloudy
3:53 AM 59.0 °F 55.0 °F 87% 29.87 in 10.0 mi Calm Calm - N/A   Overcast
4:53 AM 59.0 °F 55.0 °F 87% 29.86 in 10.0 mi SSE 5.8 mph - N/A   Overcast
5:53 AM 59.0 °F 54.0 °F 83% 29.87 in 10.0 mi Calm Calm - N/A   Overcast
6:53 AM 59.0 °F 54.0 °F 83% 29.88 in 10.0 mi Calm Calm - N/A   Overcast
7:08 AM 59.0 °F 53.6 °F 82% 29.89 in 10.0 mi Calm Calm - N/A   Overcast
7:30 AM 59.0 °F 53.6 °F 82% 29.89 in 10.0 mi East 4.6 mph - N/A   Overcast
7:53 AM 60.1 °F 54.0 °F 80% 29.88 in 10.0 mi ESE 4.6 mph - N/A   Overcast
8:00 AM 60.8 °F 53.6 °F 77% 29.90 in 10.0 mi ESE 3.5 mph - N/A   Overcast
8:15 AM 60.8 °F 53.6 °F 77% 29.89 in 10.0 mi SE 3.5 mph - N/A   Overcast
8:53 AM 62.1 °F 55.0 °F 78% 29.88 in 10.0 mi SSE 3.5 mph - N/A   Overcast
9:53 AM 64.9 °F 55.0 °F 70% 29.90 in 10.0 mi SSW 5.8 mph - N/A   Overcast
10:26 AM 66.2 °F 55.4 °F 68% 29.90 in 10.0 mi SSW 9.2 mph - N/A   Overcast
10:53 AM 66.0 °F 55.9 °F 70% 29.89 in 10.0 mi SW 6.9 mph - N/A   Overcast
11:33 AM 69.8 °F 57.2 °F 64% 29.89 in 10.0 mi SW 11.5 mph - N/A   Mostly Cloudy
11:53 AM 71.1 °F 55.9 °F 59% 29.88 in 10.0 mi SW 16.1 mph - N/A   Mostly Cloudy
12:53 PM 72.0 °F 55.0 °F 55% 29.87 in 10.0 mi SW 15.0 mph 23.0 mph N/A   Scattered Clouds
1:53 PM 73.0 °F 51.1 °F 46% 29.85 in 10.0 mi SW 16.1 mph 24.2 mph N/A   Clear
2:53 PM 72.0 °F 51.1 °F 48% 29.84 in 10.0 mi SW 17.3 mph 23.0 mph N/A   Partly Cloudy
3:53 PM 70.0 °F 50.0 °F 49% 29.83 in 10.0 mi SSW 11.5 mph 18.4 mph N/A   Partly Cloudy
4:53 PM 71.1 °F 52.0 °F 51% 29.83 in 10.0 mi WSW 20.7 mph 26.5 mph N/A   Mostly Cloudy
5:53 PM 69.1 °F 51.1 °F 53% 29.83 in 10.0 mi West 10.4 mph - N/A   Clear
6:53 PM 66.0 °F 52.0 °F 60% 29.83 in 10.0 mi West 9.2 mph - N/A   Clear
7:53 PM 63.0 °F 51.1 °F 65% 29.85 in 10.0 mi Variable 3.5 mph - N/A   Partly Cloudy
8:51 PM 62.6 °F 51.8 °F 68% 29.89 in 10.0 mi Calm Calm - N/A   Overcast
8:53 PM 62.1 °F 51.1 °F 67% 29.88 in 10.0 mi SW 3.5 mph - N/A   Overcast
9:25 PM 60.8 °F 50.0 °F 68% 29.89 in 10.0 mi West 4.6 mph - N/A   Scattered Clouds
9:53 PM 60.1 °F 50.0 °F 69% 29.88 in 10.0 mi West 4.6 mph - N/A   Clear
10:53 PM 59.0 °F 51.1 °F 75% 29.90 in 10.0 mi NW 8.1 mph - N/A   Partly Cloudy
11:53 PM 57.9 °F 48.9 °F 72% 29.90 in 10.0 mi WNW 6.9 mph - N/A   Clear